Regional Weather Roundup
Issued by NWS

Home | Current Version | Previous Version | Text Only | Print | Product List | Glossary Off
Versions: 1 2 3 4 5 6 7 8 9 10 11 12 13 14 15 16 17 18 19 20 21 22 23 24 25 26 27 28 29 30 31 32 33 34 35 36 37 38 39 40 41 42 43 44 45 46 47 48 49 50

000
ASUS45 KPSR 310610
RWRAZ

ARIZONA HOURLY REGIONAL WEATHER ROUNDUP
NATIONAL WEATHER SERVICE PHOENIX AZ
1100 PM MST TUE AUG 30 2016

NOTE: FAIR INDICATES FEW OR NO CLOUDS BELOW 12,000 FEET WITH NO
SIGNIFICANT WEATHER AND/OR OBSTRUCTIONS TO VISIBILITY.

AZZ001>003-036-310700-
NORTHWEST ARIZONA

CITY           SKY/WX    TMP DP  RH WIND       PRES   REMARKS
BULLHEAD CITY  CLEAR     95  45  17 CALM      29.76R
KINGMAN        CLEAR     73  48  41 E5        30.00S
6HR MIN TEMP:  73; 6HR MAX TEMP:  96;

$$

AZZ004>008-015-016-018-310700-
NORTH CENTRAL ARIZONA

CITY           SKY/WX    TMP DP  RH WIND       PRES   REMARKS
GRAND CANYON   CLEAR     52  45  77 CALM      30.30R
6HR MIN TEMP:  51; 6HR MAX TEMP:  82;

PRESCOTT       CLEAR     67  51  56 S8        30.16R
6HR MIN TEMP:  67; 6HR MAX TEMP:  86;

FLAGSTAFF      MOCLDY    54  45  71 CALM      30.32S
6HR MIN TEMP:  52; 6HR MAX TEMP:  77;

PAYSON         CLEAR     68  52  56 E5        30.21R
PAGE           CLEAR     77  35  21 S3        30.09S
6HR MIN TEMP:  76; 6HR MAX TEMP:  93;

$$

AZZ009>014-017-310700-
NORTHEAST ARIZONA

CITY           SKY/WX    TMP DP  RH WIND       PRES   REMARKS
WINSLOW        CLEAR     71  45  39 E7        30.16R
6HR MIN TEMP:  71; 6HR MAX TEMP:  89;

SAINT JOHNS    PTCLDY    67  44  43 SE7       30.22R
6HR MIN TEMP:  63; 6HR MAX TEMP:  83;

WINDOW ROCK    CLEAR     55  44  66 CALM      30.33R
6HR MIN TEMP:  54; 6HR MAX TEMP:  79;

SHOW LOW       CLEAR     59  46  63 CALM      30.29R
$$

AZZ023-310700-
GREATER PHOENIX AREA

CITY           SKY/WX    TMP DP  RH WIND       PRES   REMARKS
PHOENIX        PTCLDY    92  57  30 E8        29.81R
6HR MIN TEMP:  92; 6HR MAX TEMP: 105;

BUCKEYE        PTCLDY    91  50  24 E8        29.82R
LUKE AFB       CLEAR     90  55  30 N7        29.81R
6HR MIN TEMP:  90; 6HR MAX TEMP: 106;

DEER VALLEY    CLEAR     90  52  27 E6        29.84R
6HR MIN TEMP:  90; 6HR MAX TEMP: 102;

SCOTTSDALE     CLEAR     89  56  32 CALM      29.86R
6HR MIN TEMP:  89; 6HR MAX TEMP: 105;

MESA-GATEWAY   PTCLDY    82  57  42 E6        29.85R
$$

AZZ027-028-310700-
SOUTHWEST MARICOPA COUNTY AND PINAL COUNTY

CITY           SKY/WX    TMP DP  RH WIND       PRES   REMARKS
CASA GRANDE    PTCLDY    91  50  24 E12       29.87R
6HR MIN TEMP:  91; 6HR MAX TEMP: 106;

GILA BEND      PTCLDY    95  50  21 SE7       29.77R
6HR MIN TEMP:  95; 6HR MAX TEMP: 107;

$$

AZZ503-504-507>509-310700-
SOUTHEAST ARIZONA

CITY           SKY/WX    TMP DP  RH WIND       PRES   REMARKS
TUCSON         CLEAR     87  53  31 SE14      29.98S
6HR MIN TEMP:  86; 6HR MAX TEMP:  99;

DAVIS-MONTHAN  CLEAR     85  53  33 E14       29.97R
6HR MIN TEMP:  84; 6HR MAX TEMP:  97;

NOGALES        CLEAR     78  55  44 SE8       30.07R
6HR MIN TEMP:  73; 6HR MAX TEMP:  91; 6HR PCP:  0.11;

SIERRA VISTA   CLEAR     73  53  50 SE9       30.16R
6HR MIN TEMP:  73; 6HR MAX TEMP:  86;

DOUGLAS        CLEAR     72  56  57 E9        30.12R
6HR MIN TEMP:  71; 6HR MAX TEMP:  87;

SAFFORD        CLEAR     81  53  37 SE7       30.06R
6HR MIN TEMP:  79; 6HR MAX TEMP:  93;

$$

AZZ020-021-025-026-031-310700-
SOUTHWEST ARIZONA

CITY           SKY/WX    TMP DP  RH WIND       PRES   REMARKS
YUMA           PTCLDY    94  55  26 SW3       29.71R
6HR MIN TEMP:  94; 6HR MAX TEMP: 111;

$$

CAZ031-033-041-043-047-048-061-310700-
SOUTHERN CALIFORNIA

CITY           SKY/WX    TMP DP  RH WIND       PRES   REMARKS
DOWNTOWN L.A.  CLEAR     73  66  78 VRB5      29.83S
6HR MIN TEMP:  72; 6HR MAX TEMP:  81;

L.A. AIRPORT   PTCLDY    72  64  76 VRB3      29.83S
6HR MIN TEMP:  71; 6HR MAX TEMP:  76;

SAN DIEGO      MOCLDY    68  65  90 SW6       29.86R
6HR MIN TEMP:  68; 6HR MAX TEMP:  73;

BURBANK        CLEAR     73  63  70 SE7       29.85R
6HR MIN TEMP:  73; 6HR MAX TEMP:  91;

ONTARIO        CLEAR     76  61  59 NW9       29.86R
6HR MIN TEMP:  76; 6HR MAX TEMP:  96;

RIVERSIDE      CLEAR     75  62  64 W5        29.86R
6HR MIN TEMP:  75; 6HR MAX TEMP:  96;

PALM SPRINGS   CLEAR     97  44  16 CALM      29.75R
6HR MIN TEMP:  95; 6HR MAX TEMP: 112;

EL CENTRO NAS  CLEAR     91  44  19 W7        29.71R
6HR MIN TEMP:  90; 6HR MAX TEMP: 112;

IMPERIAL       CLEAR     93  49  22 W7        29.68R
6HR MIN TEMP:  93; 6HR MAX TEMP: 113;

BLYTHE         CLEAR     94  42  16 CALM      29.72S
6HR MIN TEMP:  94; 6HR MAX TEMP: 111;

NEEDLES        CLEAR     96  44  16 SE9       29.77R
6HR MIN TEMP:  96; 6HR MAX TEMP: 111;

$$

NVZ020-UTZ003-310700-
SOUTHERN NEVADA-UTAH

CITY           SKY/WX    TMP DP  RH WIND       PRES   REMARKS
LAS VEGAS      CLEAR     93  32  11 SW7       29.85R
6HR MIN TEMP:  92; 6HR MAX TEMP: 104;

SALT LAKE CITY PTCLDY    79  37  22 S14       30.02S
6HR MIN TEMP:  78; 6HR MAX TEMP:  97;

$$

NMZ009-TXZ055-310700-
NEW MEXICO-WEST TEXAS

CITY           SKY/WX    TMP DP  RH WIND       PRES   REMARKS
ALBUQUERQUE    PTCLDY    66  55  67 E14       30.29R
6HR MIN TEMP:  66; 6HR MAX TEMP:  79;

EL PASO        CLOUDY    70  64  81 E3        30.18R
6HR MIN TEMP:  69; 6HR MAX TEMP:  77;

$$


........................KEY........................
SKY/WX - SKY CONDITION/WEATHER
TMP    - TEMPERATURE IN FAHRENHEIT
DP     - DEW POINT IN FAHRENHEIT
RH     - RELATIVE HUMIDITY IN PERCENT
WIND   - DIRECTION AND SPEED IN MILES PER HOUR (MPH)
VRB    - VARIABLE WIND DIRECTION
PRES   - MEAN SEA LEVEL PRESSURE IN INCHES OF MERCURY
         F - FALLING PRESSURE   R - RISING PRESSURE
         S - STEADY PRESSURE
VSB    - VISIBILITY IN MILES
HX     - HEAT INDEX IN FAHRENHEIT
WCI    - WIND CHILL INDEX IN FAHRENHEIT
TC     - TEMPERATURE IN CELSIUS WHICH IS ALSO KNOWN AS
         TEMPERATURE IN CENTIGRADE
AFB    - AIR FORCE BASE
         LUKE AFB IS LUKE AIR FORCE BASE
         DAVIS-MONTHAN IS DAVIS-MONTHAN AIR FORCE BASE
NAS    - NAVAL AIR STATION
         EL CENTRO NAS IS EL CENTRO NAVAL AIR STATION
N/A    - NOT AVAILABLE




USA.gov is the U.S. government's official web portal to all federal, state and local government web resources and services.